Tracking 29892 objects as of 21-Nov-2024
HD Live streaming from Space Station
objects crossing your sky now

STARLINK-2437

Track STARLINK-2437 now!
10-day predictions
STARLINK-2437 is classified as:


NORAD ID: 48102
Int'l Code: 2021-027L
Perigee: 553.3 km
Apogee: 555.2 km
Inclination: 53.1 °
Period: 95.6 minutes
Semi major axis: 6925 km
RCS: Unknown
Launch date: April 7, 2021
Source: United States (US)
Launch site: AIR FORCE EASTERN TEST RANGE (AFETR)
Your satellite tracking list
Your tracking list is empty




NASA's NSSDC Master Catalog

Two Line Element Set (TLE):
1 48102U 21027L   24325.83090246  .00002163  00000-0  16397-3 0  9996
2 48102  53.0539 118.8514 0001375  89.5465 270.5682 15.06419221200871
Source of the keplerian elements: AFSPC